Year,Month,Day,Hour,Minute,Value (Times are PST for temperature in C)
2015,06,28,00,00,20.90
2015,06,28,00,01,20.90
2015,06,28,00,02,20.90
2015,06,28,00,03,20.90
2015,06,28,00,04,20.90
2015,06,28,00,05,20.90
2015,06,28,00,06,20.90
2015,06,28,00,07,20.90
2015,06,28,00,08,20.90
2015,06,28,00,09,20.80
2015,06,28,00,10,20.80
2015,06,28,00,11,20.80
2015,06,28,00,12,20.80
2015,06,28,00,13,20.80
2015,06,28,00,14,20.80
2015,06,28,00,15,20.80
2015,06,28,00,16,20.80
2015,06,28,00,17,20.90
2015,06,28,00,18,20.90
2015,06,28,00,19,20.90
2015,06,28,00,20,20.90
2015,06,28,00,21,20.90
2015,06,28,00,22,20.90
2015,06,28,00,23,20.90
2015,06,28,00,24,20.90
2015,06,28,00,25,20.90
2015,06,28,00,26,21.00
2015,06,28,00,27,21.00
2015,06,28,00,28,21.00
2015,06,28,00,29,21.00
2015,06,28,00,30,21.00
2015,06,28,00,31,21.00
2015,06,28,00,32,21.00
2015,06,28,00,33,21.00
2015,06,28,00,34,21.00
2015,06,28,00,35,21.00
2015,06,28,00,36,21.00
2015,06,28,00,37,20.90
2015,06,28,00,38,20.90
2015,06,28,00,39,20.90
2015,06,28,00,40,20.80
2015,06,28,00,41,20.80
2015,06,28,00,42,20.80
2015,06,28,00,43,20.70
2015,06,28,00,44,20.70
2015,06,28,00,45,20.70
2015,06,28,00,46,20.70
2015,06,28,00,47,20.60
2015,06,28,00,48,20.60
2015,06,28,00,49,20.60
2015,06,28,00,50,20.60
2015,06,28,00,51,20.60
2015,06,28,00,52,20.60
2015,06,28,00,53,20.60
2015,06,28,00,54,20.60
2015,06,28,00,55,20.60
2015,06,28,00,56,20.60
2015,06,28,00,57,20.60
2015,06,28,00,58,20.70
2015,06,28,00,59,20.70
2015,06,28,01,00,20.70
2015,06,28,01,01,20.70
2015,06,28,01,02,20.70
2015,06,28,01,03,20.70
2015,06,28,01,04,20.70
2015,06,28,01,05,20.70
2015,06,28,01,06,20.70
2015,06,28,01,07,20.70
2015,06,28,01,08,20.80
2015,06,28,01,09,20.80
2015,06,28,01,10,20.80
2015,06,28,01,11,20.90
2015,06,28,01,12,20.90
2015,06,28,01,13,20.90
2015,06,28,01,14,20.90
2015,06,28,01,15,21.00
2015,06,28,01,16,21.00
2015,06,28,01,17,21.00
2015,06,28,01,18,21.00
2015,06,28,01,19,20.90
2015,06,28,01,20,20.90
2015,06,28,01,21,20.90
2015,06,28,01,22,20.80
2015,06,28,01,23,20.80
2015,06,28,01,24,20.90
2015,06,28,01,25,20.90
2015,06,28,01,26,20.80
2015,06,28,01,27,20.80
2015,06,28,01,28,20.80
2015,06,28,01,29,20.80
2015,06,28,01,30,20.80
2015,06,28,01,31,20.80
2015,06,28,01,32,20.80
2015,06,28,01,33,20.80
2015,06,28,01,34,20.80
2015,06,28,01,35,20.80
2015,06,28,01,36,20.90
2015,06,28,01,37,20.90
2015,06,28,01,38,20.90
2015,06,28,01,39,20.90
2015,06,28,01,40,20.90
2015,06,28,01,41,20.90
2015,06,28,01,42,20.90
2015,06,28,01,43,20.90
2015,06,28,01,44,20.90
2015,06,28,01,45,20.90
2015,06,28,01,46,20.90
2015,06,28,01,47,20.90
2015,06,28,01,48,20.90
2015,06,28,01,49,20.90
2015,06,28,01,50,20.90
2015,06,28,01,51,20.90
2015,06,28,01,52,20.90
2015,06,28,01,53,20.90
2015,06,28,01,54,20.90
2015,06,28,01,55,20.90
2015,06,28,01,56,20.90
2015,06,28,01,57,20.90
2015,06,28,01,58,20.90
2015,06,28,01,59,20.90
2015,06,28,02,00,20.90
2015,06,28,02,01,20.90
2015,06,28,02,02,21.00
2015,06,28,02,03,21.00
2015,06,28,02,04,21.00
2015,06,28,02,05,21.00
2015,06,28,02,06,21.10
2015,06,28,02,07,21.10
2015,06,28,02,08,21.10
2015,06,28,02,09,21.10
2015,06,28,02,10,21.10
2015,06,28,02,11,21.20
2015,06,28,02,12,21.20
2015,06,28,02,13,21.20
2015,06,28,02,14,21.20
2015,06,28,02,15,21.20
2015,06,28,02,16,21.20
2015,06,28,02,17,21.20
2015,06,28,02,18,21.20
2015,06,28,02,19,21.20
2015,06,28,02,20,21.20
2015,06,28,02,21,21.20
2015,06,28,02,22,21.20
2015,06,28,02,23,21.20
2015,06,28,02,24,21.20
2015,06,28,02,25,21.20
2015,06,28,02,26,21.20
2015,06,28,02,27,21.20
2015,06,28,02,28,21.20
2015,06,28,02,29,21.20
2015,06,28,02,30,21.10
2015,06,28,02,31,21.10
2015,06,28,02,32,21.10
2015,06,28,02,33,21.10
2015,06,28,02,34,21.00
2015,06,28,02,35,21.00
2015,06,28,02,36,21.00
2015,06,28,02,37,21.00
2015,06,28,02,38,20.90
2015,06,28,02,39,20.80
2015,06,28,02,40,20.70
2015,06,28,02,41,20.60
2015,06,28,02,42,20.50
2015,06,28,02,43,20.40
2015,06,28,02,44,20.40
2015,06,28,02,45,20.30
2015,06,28,02,46,20.20
2015,06,28,02,47,20.20
2015,06,28,02,48,20.10
2015,06,28,02,49,20.10
2015,06,28,02,50,20.00
2015,06,28,02,51,20.00
2015,06,28,02,52,19.90
2015,06,28,02,53,19.90
2015,06,28,02,54,19.90
2015,06,28,02,55,19.80
2015,06,28,02,56,19.80
2015,06,28,02,57,19.80
2015,06,28,02,58,19.80
2015,06,28,02,59,19.70
2015,06,28,03,00,19.70
2015,06,28,03,01,19.60
2015,06,28,03,02,19.60
2015,06,28,03,03,19.60
2015,06,28,03,04,19.50
2015,06,28,03,05,19.50
2015,06,28,03,06,19.50
2015,06,28,03,07,19.40
2015,06,28,03,08,19.40
2015,06,28,03,09,19.40
2015,06,28,03,10,19.40
2015,06,28,03,11,19.40
2015,06,28,03,12,19.30
2015,06,28,03,13,19.30
2015,06,28,03,14,19.30
2015,06,28,03,15,19.20
2015,06,28,03,16,19.20
2015,06,28,03,17,19.20
2015,06,28,03,18,19.20
2015,06,28,03,19,19.10
2015,06,28,03,20,19.10
2015,06,28,03,21,19.10
2015,06,28,03,22,19.10
2015,06,28,03,23,19.00
2015,06,28,03,24,19.00
2015,06,28,03,25,19.00
2015,06,28,03,26,18.90
2015,06,28,03,27,18.90
2015,06,28,03,28,18.90
2015,06,28,03,29,18.90
2015,06,28,03,30,18.90
2015,06,28,03,31,18.80
2015,06,28,03,32,18.80
2015,06,28,03,33,18.80
2015,06,28,03,34,18.80
2015,06,28,03,35,18.80
2015,06,28,03,36,18.80
2015,06,28,03,37,18.80
2015,06,28,03,38,18.80
2015,06,28,03,39,18.80
2015,06,28,03,40,18.80
2015,06,28,03,41,18.80
2015,06,28,03,42,18.80
2015,06,28,03,43,18.80
2015,06,28,03,44,18.80
2015,06,28,03,45,18.80
2015,06,28,03,46,18.80
2015,06,28,03,47,18.80
2015,06,28,03,48,18.80
2015,06,28,03,49,18.80
2015,06,28,03,50,18.80
2015,06,28,03,51,18.80
2015,06,28,03,52,18.80
2015,06,28,03,53,18.80
2015,06,28,03,54,18.80
2015,06,28,03,55,18.80
2015,06,28,03,56,18.80
2015,06,28,03,57,18.80
2015,06,28,03,58,18.80
2015,06,28,03,59,18.70
2015,06,28,04,00,18.70
2015,06,28,04,01,18.70
2015,06,28,04,02,18.60
2015,06,28,04,03,18.50
2015,06,28,04,04,18.50
2015,06,28,04,05,18.40
2015,06,28,04,06,18.40
2015,06,28,04,07,18.30
2015,06,28,04,08,18.30
2015,06,28,04,09,18.30
2015,06,28,04,10,18.30
2015,06,28,04,11,18.30
2015,06,28,04,12,18.30
2015,06,28,04,13,18.30
2015,06,28,04,14,18.30
2015,06,28,04,15,18.30
2015,06,28,04,16,18.30
2015,06,28,04,17,18.30
2015,06,28,04,18,18.40
2015,06,28,04,19,18.40
2015,06,28,04,20,18.40
2015,06,28,04,21,18.50
2015,06,28,04,22,18.50
2015,06,28,04,23,18.60
2015,06,28,04,24,18.60
2015,06,28,04,25,18.60
2015,06,28,04,26,18.60
2015,06,28,04,27,18.70
2015,06,28,04,28,18.70
2015,06,28,04,29,18.80
2015,06,28,04,30,18.80
2015,06,28,04,31,18.80
2015,06,28,04,32,18.90
2015,06,28,04,33,18.90
2015,06,28,04,34,18.90
2015,06,28,04,35,19.00
2015,06,28,04,36,19.00
2015,06,28,04,37,19.00
2015,06,28,04,38,19.10
2015,06,28,04,39,19.10
2015,06,28,04,40,19.10
2015,06,28,04,41,19.10
2015,06,28,04,42,19.20
2015,06,28,04,43,19.20
2015,06,28,04,44,19.20
2015,06,28,04,45,19.10
2015,06,28,04,46,19.10
2015,06,28,04,47,19.10
2015,06,28,04,48,19.10
2015,06,28,04,49,19.10
2015,06,28,04,50,19.10
2015,06,28,04,51,19.10
2015,06,28,04,52,19.10
2015,06,28,04,53,19.10
2015,06,28,04,54,19.10
2015,06,28,04,55,19.20
2015,06,28,04,56,19.20
2015,06,28,04,57,19.20
2015,06,28,04,58,19.20
2015,06,28,04,59,19.20
2015,06,28,05,00,19.30
2015,06,28,05,01,19.30
2015,06,28,05,02,19.30
2015,06,28,05,03,19.30
2015,06,28,05,04,19.30
2015,06,28,05,05,19.40
2015,06,28,05,06,19.40
2015,06,28,05,07,19.40
2015,06,28,05,08,19.40
2015,06,28,05,09,19.40
2015,06,28,05,10,19.40
2015,06,28,05,11,19.40
2015,06,28,05,12,19.30
2015,06,28,05,13,19.30
2015,06,28,05,14,19.30
2015,06,28,05,15,19.30
2015,06,28,05,16,19.30
2015,06,28,05,17,19.20
2015,06,28,05,18,19.20
2015,06,28,05,19,19.20
2015,06,28,05,20,19.20
2015,06,28,05,21,19.20
2015,06,28,05,22,19.20
2015,06,28,05,23,19.20
2015,06,28,05,24,19.30
2015,06,28,05,25,19.30
2015,06,28,05,26,19.30
2015,06,28,05,27,19.20
2015,06,28,05,28,19.20
2015,06,28,05,29,19.20
2015,06,28,05,30,19.20
2015,06,28,05,31,19.20
2015,06,28,05,32,19.10
2015,06,28,05,33,19.10
2015,06,28,05,34,19.10
2015,06,28,05,35,19.10
2015,06,28,05,36,19.00
2015,06,28,05,37,19.00
2015,06,28,05,38,19.00
2015,06,28,05,39,18.90
2015,06,28,05,40,18.90
2015,06,28,05,41,18.90
2015,06,28,05,42,18.90
2015,06,28,05,43,18.90
2015,06,28,05,44,18.90
2015,06,28,05,45,18.90
2015,06,28,05,46,19.00
2015,06,28,05,47,19.00
2015,06,28,05,48,19.00
2015,06,28,05,49,19.00
2015,06,28,05,50,19.10
2015,06,28,05,51,19.10
2015,06,28,05,52,19.10
2015,06,28,05,53,19.20
2015,06,28,05,54,19.20
2015,06,28,05,55,19.20
2015,06,28,05,56,19.20
2015,06,28,05,57,19.20
2015,06,28,05,58,19.20
2015,06,28,05,59,19.20
2015,06,28,06,00,19.20
2015,06,28,06,01,19.30
2015,06,28,06,02,19.30
2015,06,28,06,03,19.30
2015,06,28,06,04,19.30
2015,06,28,06,05,19.30
2015,06,28,06,06,19.30
2015,06,28,06,07,19.30
2015,06,28,06,08,19.40
2015,06,28,06,09,19.40
2015,06,28,06,10,19.40
2015,06,28,06,11,19.40
2015,06,28,06,12,19.40
2015,06,28,06,13,19.40
2015,06,28,06,14,19.40
2015,06,28,06,15,19.40
2015,06,28,06,16,19.40
2015,06,28,06,17,19.50
2015,06,28,06,18,19.50
2015,06,28,06,19,19.60
2015,06,28,06,20,19.60
2015,06,28,06,21,19.60
2015,06,28,06,22,19.60
2015,06,28,06,23,19.60
2015,06,28,06,24,19.70
2015,06,28,06,25,19.70
2015,06,28,06,26,19.70
2015,06,28,06,27,19.70
2015,06,28,06,28,19.70
2015,06,28,06,29,19.80
2015,06,28,06,30,19.80
2015,06,28,06,31,19.90
2015,06,28,06,32,19.90
2015,06,28,06,33,19.90
2015,06,28,06,34,19.90
2015,06,28,06,35,20.00
2015,06,28,06,36,20.00
2015,06,28,06,37,20.00
2015,06,28,06,38,20.00
2015,06,28,06,39,20.10
2015,06,28,06,40,20.10
2015,06,28,06,41,20.10
2015,06,28,06,42,20.20
2015,06,28,06,43,20.20
2015,06,28,06,44,20.20
2015,06,28,06,45,20.20
2015,06,28,06,46,20.20
2015,06,28,06,47,20.30
2015,06,28,06,48,20.30
2015,06,28,06,49,20.30
2015,06,28,06,50,20.30
2015,06,28,06,51,20.30
2015,06,28,06,52,20.30
2015,06,28,06,53,20.40
2015,06,28,06,54,20.40
2015,06,28,06,55,20.40
2015,06,28,06,56,20.40
2015,06,28,06,57,20.40
2015,06,28,06,58,20.40
2015,06,28,06,59,20.40
2015,06,28,07,00,20.40
2015,06,28,07,01,20.40
2015,06,28,07,02,20.50
2015,06,28,07,03,20.50
2015,06,28,07,04,20.50
2015,06,28,07,05,20.60
2015,06,28,07,06,20.60
2015,06,28,07,07,20.60
2015,06,28,07,08,20.60
2015,06,28,07,09,20.60
2015,06,28,07,10,20.60
2015,06,28,07,11,20.60
2015,06,28,07,12,20.50
2015,06,28,07,13,20.50
2015,06,28,07,14,20.50
2015,06,28,07,15,20.40
2015,06,28,07,16,20.40
2015,06,28,07,17,20.40
2015,06,28,07,18,20.30
2015,06,28,07,19,20.30
2015,06,28,07,20,20.30
2015,06,28,07,21,20.30
2015,06,28,07,22,20.30
2015,06,28,07,23,20.30
2015,06,28,07,24,20.30
2015,06,28,07,25,20.30
2015,06,28,07,26,20.30
2015,06,28,07,27,20.30
2015,06,28,07,28,20.30
2015,06,28,07,29,20.30
2015,06,28,07,30,20.30
2015,06,28,07,31,20.30
2015,06,28,07,32,20.30
2015,06,28,07,33,20.40
2015,06,28,07,34,20.40
2015,06,28,07,35,20.40
2015,06,28,07,36,20.40
2015,06,28,07,37,20.50
2015,06,28,07,38,20.50
2015,06,28,07,39,20.60
2015,06,28,07,40,20.60
2015,06,28,07,41,20.60
2015,06,28,07,42,20.70
2015,06,28,07,43,20.80
2015,06,28,07,44,20.80
2015,06,28,07,45,20.80
2015,06,28,07,46,20.90
2015,06,28,07,47,20.90
2015,06,28,07,48,21.00
2015,06,28,07,49,21.10
2015,06,28,07,50,21.10
2015,06,28,07,51,21.20
2015,06,28,07,52,21.30
2015,06,28,07,53,21.30
2015,06,28,07,54,21.30
2015,06,28,07,55,21.40
2015,06,28,07,56,21.40
2015,06,28,07,57,21.50
2015,06,28,07,58,21.50
2015,06,28,07,59,21.60
2015,06,28,08,00,21.60
2015,06,28,08,01,21.70
2015,06,28,08,02,21.80
2015,06,28,08,03,21.80
2015,06,28,08,04,21.90
2015,06,28,08,05,22.00
2015,06,28,08,06,22.10
2015,06,28,08,07,22.10
2015,06,28,08,08,22.20
2015,06,28,08,09,22.30
2015,06,28,08,10,22.30
2015,06,28,08,11,22.40
2015,06,28,08,12,22.50
2015,06,28,08,13,22.60
2015,06,28,08,14,22.70
2015,06,28,08,15,22.80
2015,06,28,08,16,22.90
2015,06,28,08,17,23.00
2015,06,28,08,18,23.10
2015,06,28,08,19,23.10
2015,06,28,08,20,23.20
2015,06,28,08,21,23.30
2015,06,28,08,22,23.30
2015,06,28,08,23,23.40
2015,06,28,08,24,23.50
2015,06,28,08,25,23.60
2015,06,28,08,26,23.60
2015,06,28,08,27,23.70
2015,06,28,08,28,23.70
2015,06,28,08,29,23.80
2015,06,28,08,30,23.80
2015,06,28,08,31,23.90
2015,06,28,08,32,23.90
2015,06,28,08,33,23.90
2015,06,28,08,34,24.00
2015,06,28,08,35,24.00
2015,06,28,08,36,24.00
2015,06,28,08,37,24.10
2015,06,28,08,38,24.10
2015,06,28,08,39,24.20
2015,06,28,08,40,24.20
2015,06,28,08,41,24.30
2015,06,28,08,42,24.30
2015,06,28,08,43,24.30
2015,06,28,08,44,24.40
2015,06,28,08,45,24.40
2015,06,28,08,46,24.50
2015,06,28,08,47,24.50
2015,06,28,08,48,24.60
2015,06,28,08,49,24.70
2015,06,28,08,50,24.70
2015,06,28,08,51,24.80
2015,06,28,08,52,24.80
2015,06,28,08,53,24.90
2015,06,28,08,54,25.00
2015,06,28,08,55,25.00
2015,06,28,08,56,25.10
2015,06,28,08,57,25.10
2015,06,28,08,58,25.20
2015,06,28,08,59,25.20
2015,06,28,09,00,25.20
2015,06,28,09,01,25.20
2015,06,28,09,02,25.30
2015,06,28,09,03,25.30
2015,06,28,09,04,25.30
2015,06,28,09,05,25.30
2015,06,28,09,06,25.30
2015,06,28,09,07,25.30
2015,06,28,09,08,25.30
2015,06,28,09,09,25.20
2015,06,28,09,10,25.20
2015,06,28,09,11,25.20
2015,06,28,09,12,25.20
2015,06,28,09,13,25.20
2015,06,28,09,14,25.20
2015,06,28,09,15,25.20
2015,06,28,09,16,25.20
2015,06,28,09,17,25.20
2015,06,28,09,18,25.20
2015,06,28,09,19,25.20
2015,06,28,09,20,25.20
2015,06,28,09,21,25.20
2015,06,28,09,22,25.20
2015,06,28,09,23,25.20
2015,06,28,09,24,25.20
2015,06,28,09,25,25.30
2015,06,28,09,26,25.30
2015,06,28,09,27,25.30
2015,06,28,09,28,25.40
2015,06,28,09,29,25.40
2015,06,28,09,30,25.40
2015,06,28,09,31,25.50
2015,06,28,09,32,25.50
2015,06,28,09,33,25.50
2015,06,28,09,34,25.60
2015,06,28,09,35,25.60
2015,06,28,09,36,25.60
2015,06,28,09,37,25.60
2015,06,28,09,38,25.60
2015,06,28,09,39,25.60
2015,06,28,09,40,25.70
2015,06,28,09,41,25.70
2015,06,28,09,42,25.70
2015,06,28,09,43,25.70
2015,06,28,09,44,25.70
2015,06,28,09,45,25.70
2015,06,28,09,46,25.70
2015,06,28,09,47,25.70
2015,06,28,09,48,25.70
2015,06,28,09,49,25.60
2015,06,28,09,50,25.60
2015,06,28,09,51,25.60
2015,06,28,09,52,25.70
2015,06,28,09,53,25.70
2015,06,28,09,54,25.70
2015,06,28,09,55,25.70
2015,06,28,09,56,25.70
2015,06,28,09,57,25.70
2015,06,28,09,58,25.70
2015,06,28,09,59,25.70
2015,06,28,10,00,25.70
2015,06,28,10,01,25.70
2015,06,28,10,02,25.80
2015,06,28,10,03,25.80
2015,06,28,10,04,25.80
2015,06,28,10,05,25.80
2015,06,28,10,06,25.80
2015,06,28,10,07,25.80
2015,06,28,10,08,25.90
2015,06,28,10,09,25.90
2015,06,28,10,10,25.90
2015,06,28,10,11,26.00
2015,06,28,10,12,26.00
2015,06,28,10,13,26.10
2015,06,28,10,14,26.10
2015,06,28,10,15,26.10
2015,06,28,10,16,26.20
2015,06,28,10,17,26.20
2015,06,28,10,18,26.20
2015,06,28,10,19,26.20
2015,06,28,10,20,26.20
2015,06,28,10,21,26.20
2015,06,28,10,22,26.20
2015,06,28,10,23,26.30
2015,06,28,10,24,26.30
2015,06,28,10,25,26.40
2015,06,28,10,26,26.40
2015,06,28,10,27,26.50
2015,06,28,10,28,26.50
2015,06,28,10,29,26.60
2015,06,28,10,30,26.60
2015,06,28,10,31,26.60
2015,06,28,10,32,26.70
2015,06,28,10,33,26.70
2015,06,28,10,34,26.80
2015,06,28,10,35,26.80
2015,06,28,10,36,26.90
2015,06,28,10,37,26.90
2015,06,28,10,38,27.00
2015,06,28,10,39,27.10
2015,06,28,10,40,27.10
2015,06,28,10,41,27.20
2015,06,28,10,42,27.20
2015,06,28,10,43,27.20
2015,06,28,10,44,27.30
2015,06,28,10,45,27.30
2015,06,28,10,46,27.40
2015,06,28,10,47,27.40
2015,06,28,10,48,27.50
2015,06,28,10,49,27.50
2015,06,28,10,50,27.60
2015,06,28,10,51,27.70
2015,06,28,10,52,27.80
2015,06,28,10,53,27.90
2015,06,28,10,54,28.00
2015,06,28,10,55,28.00
2015,06,28,10,56,28.10
2015,06,28,10,57,28.10
2015,06,28,10,58,28.10
2015,06,28,10,59,28.00
2015,06,28,11,00,28.00
2015,06,28,11,01,27.90
2015,06,28,11,02,27.90
2015,06,28,11,03,27.90
2015,06,28,11,04,27.90
2015,06,28,11,05,27.90
2015,06,28,11,06,27.90
2015,06,28,11,07,28.00
2015,06,28,11,08,28.00
2015,06,28,11,09,28.00
2015,06,28,11,10,28.00
2015,06,28,11,11,28.00
2015,06,28,11,12,28.00
2015,06,28,11,13,28.00
2015,06,28,11,14,27.90
2015,06,28,11,15,27.90
2015,06,28,11,16,27.90
2015,06,28,11,17,27.90
2015,06,28,11,18,27.90
2015,06,28,11,19,27.90
2015,06,28,11,20,27.80
2015,06,28,11,21,27.80
2015,06,28,11,22,27.80
2015,06,28,11,23,27.80
2015,06,28,11,24,27.80
2015,06,28,11,25,27.80
2015,06,28,11,26,27.70
2015,06,28,11,27,27.70
2015,06,28,11,28,27.70
2015,06,28,11,29,27.70
2015,06,28,11,30,27.70
2015,06,28,11,31,27.70
2015,06,28,11,32,27.70
2015,06,28,11,33,27.70
2015,06,28,11,34,27.70
2015,06,28,11,35,27.60
2015,06,28,11,36,27.50
2015,06,28,11,37,27.50
2015,06,28,11,38,27.30
2015,06,28,11,39,27.30
2015,06,28,11,40,27.20
2015,06,28,11,41,27.10
2015,06,28,11,42,27.10
2015,06,28,11,43,27.00
2015,06,28,11,44,27.00
2015,06,28,11,45,26.90
2015,06,28,11,46,26.90
2015,06,28,11,47,26.80
2015,06,28,11,48,26.80
2015,06,28,11,49,26.70
2015,06,28,11,50,26.70
2015,06,28,11,51,26.60
2015,06,28,11,52,26.60
2015,06,28,11,53,26.60
2015,06,28,11,54,26.60
2015,06,28,11,55,26.60
2015,06,28,11,56,26.50
2015,06,28,11,57,26.50
2015,06,28,11,58,26.50
2015,06,28,11,59,26.40
2015,06,28,12,00,26.40
2015,06,28,12,01,26.30
2015,06,28,12,02,26.30
2015,06,28,12,03,26.30
2015,06,28,12,04,26.30
2015,06,28,12,05,26.30
2015,06,28,12,06,26.30
2015,06,28,12,07,26.30
2015,06,28,12,08,26.30
2015,06,28,12,09,26.20
2015,06,28,12,10,26.20
2015,06,28,12,11,26.20
2015,06,28,12,12,26.20
2015,06,28,12,13,26.10
2015,06,28,12,14,26.00
2015,06,28,12,15,25.90
2015,06,28,12,16,25.80
2015,06,28,12,17,25.80
2015,06,28,12,18,25.70
2015,06,28,12,19,25.60
2015,06,28,12,20,25.60
2015,06,28,12,21,25.50
2015,06,28,12,22,25.40
2015,06,28,12,23,25.30
2015,06,28,12,24,25.30
2015,06,28,12,25,25.20
2015,06,28,12,26,25.20
2015,06,28,12,27,25.20
2015,06,28,12,28,25.10
2015,06,28,12,29,25.10
2015,06,28,12,30,25.10
2015,06,28,12,31,25.10
2015,06,28,12,32,25.10
2015,06,28,12,33,25.10
2015,06,28,12,34,25.10
2015,06,28,12,35,25.10
2015,06,28,12,36,25.10
2015,06,28,12,37,25.00
2015,06,28,12,38,25.00
2015,06,28,12,39,25.00
2015,06,28,12,40,25.00
2015,06,28,12,41,25.00
2015,06,28,12,42,25.00
2015,06,28,12,43,24.90
2015,06,28,12,44,24.90
2015,06,28,12,45,24.90
2015,06,28,12,46,24.90
2015,06,28,12,47,24.90
2015,06,28,12,48,24.90
2015,06,28,12,49,24.90
2015,06,28,12,50,24.90
2015,06,28,12,51,25.00
2015,06,28,12,52,25.00
2015,06,28,12,53,25.00
2015,06,28,12,54,25.10
2015,06,28,12,55,25.10
2015,06,28,12,56,25.10
2015,06,28,12,57,25.20
2015,06,28,12,58,25.20
2015,06,28,12,59,25.20
2015,06,28,13,00,25.30
2015,06,28,13,01,25.30
2015,06,28,13,02,25.40
2015,06,28,13,03,25.40
2015,06,28,13,04,25.50
2015,06,28,13,05,25.50
2015,06,28,13,06,25.60
2015,06,28,13,07,25.70
2015,06,28,13,08,25.70
2015,06,28,13,09,25.80
2015,06,28,13,10,25.80
2015,06,28,13,11,25.80
2015,06,28,13,12,25.90
2015,06,28,13,13,25.90
2015,06,28,13,14,25.90
2015,06,28,13,15,26.00
2015,06,28,13,16,26.00
2015,06,28,13,17,26.00
2015,06,28,13,18,26.10
2015,06,28,13,19,26.10
2015,06,28,13,20,26.10
2015,06,28,13,21,26.10
2015,06,28,13,22,26.10
2015,06,28,13,23,26.10
2015,06,28,13,24,26.10
2015,06,28,13,25,26.10
2015,06,28,13,26,26.10
2015,06,28,13,27,26.00
2015,06,28,13,28,26.00
2015,06,28,13,29,25.90
2015,06,28,13,30,25.90
2015,06,28,13,31,25.90
2015,06,28,13,32,25.90
2015,06,28,13,33,25.90
2015,06,28,13,34,26.00
2015,06,28,13,35,26.00
2015,06,28,13,36,26.00
2015,06,28,13,37,26.00
2015,06,28,13,38,26.00
2015,06,28,13,39,26.10
2015,06,28,13,40,26.00
2015,06,28,13,41,26.00
2015,06,28,13,42,26.00
2015,06,28,13,43,26.00
2015,06,28,13,44,26.00
2015,06,28,13,45,26.10
2015,06,28,13,46,26.10
2015,06,28,13,47,26.10
2015,06,28,13,48,26.10
2015,06,28,13,49,26.10
2015,06,28,13,50,26.00
2015,06,28,13,51,26.00
2015,06,28,13,52,26.00
2015,06,28,13,53,26.00
2015,06,28,13,54,26.00
2015,06,28,13,55,25.90
2015,06,28,13,56,25.90
2015,06,28,13,57,25.90
2015,06,28,13,58,25.90
2015,06,28,13,59,25.80
2015,06,28,14,00,25.80
2015,06,28,14,01,25.80
2015,06,28,14,02,25.70
2015,06,28,14,03,25.70
2015,06,28,14,04,25.70
2015,06,28,14,05,25.70
2015,06,28,14,06,25.70
2015,06,28,14,07,25.70
2015,06,28,14,08,25.60
2015,06,28,14,09,25.60
2015,06,28,14,10,25.60
2015,06,28,14,11,25.60
2015,06,28,14,12,25.60
2015,06,28,14,13,25.50
2015,06,28,14,14,25.50
2015,06,28,14,15,25.40
2015,06,28,14,16,25.30
2015,06,28,14,17,25.30
2015,06,28,14,18,25.20
2015,06,28,14,19,25.10
2015,06,28,14,20,25.00
2015,06,28,14,21,24.90
2015,06,28,14,22,24.80
2015,06,28,14,23,24.70
2015,06,28,14,24,24.60
2015,06,28,14,25,24.50
2015,06,28,14,26,24.40
2015,06,28,14,27,24.30
2015,06,28,14,28,24.30
2015,06,28,14,29,24.20
2015,06,28,14,30,24.20
2015,06,28,14,31,24.10
2015,06,28,14,32,24.10
2015,06,28,14,33,24.10
2015,06,28,14,34,24.10
2015,06,28,14,35,24.10
2015,06,28,14,36,24.10
2015,06,28,14,37,24.10
2015,06,28,14,38,24.10
2015,06,28,14,39,24.10
2015,06,28,14,40,24.20
2015,06,28,14,41,24.20
2015,06,28,14,42,24.20
2015,06,28,14,43,24.30
2015,06,28,14,44,24.30
2015,06,28,14,45,24.30
2015,06,28,14,46,24.40
2015,06,28,14,47,24.40
2015,06,28,14,48,24.40
2015,06,28,14,49,24.40
2015,06,28,14,50,24.40
2015,06,28,14,51,24.40
2015,06,28,14,52,24.50
2015,06,28,14,53,24.50
2015,06,28,14,54,24.50
2015,06,28,14,55,24.60
2015,06,28,14,56,24.60
2015,06,28,14,57,24.60
2015,06,28,14,58,24.60
2015,06,28,14,59,24.60
2015,06,28,15,00,24.60
2015,06,28,15,01,24.60
2015,06,28,15,02,24.60
2015,06,28,15,03,24.60
2015,06,28,15,04,24.60
2015,06,28,15,05,24.60
2015,06,28,15,06,24.60
2015,06,28,15,07,24.50
2015,06,28,15,08,24.50
2015,06,28,15,09,24.40
2015,06,28,15,10,24.30
2015,06,28,15,11,24.20
2015,06,28,15,12,24.20
2015,06,28,15,13,24.20
2015,06,28,15,14,24.10
2015,06,28,15,15,24.10
2015,06,28,15,16,24.10
2015,06,28,15,17,24.10
2015,06,28,15,18,24.10
2015,06,28,15,19,24.10
2015,06,28,15,20,24.10
2015,06,28,15,21,24.00
2015,06,28,15,22,24.00
2015,06,28,15,23,24.00
2015,06,28,15,24,24.00
2015,06,28,15,25,24.00
2015,06,28,15,26,23.90
2015,06,28,15,27,23.90
2015,06,28,15,28,23.90
2015,06,28,15,29,23.90
2015,06,28,15,30,23.90
2015,06,28,15,31,23.90
2015,06,28,15,32,23.90
2015,06,28,15,33,23.90
2015,06,28,15,34,23.90
2015,06,28,15,35,23.90
2015,06,28,15,36,23.90
2015,06,28,15,37,23.90
2015,06,28,15,38,23.90
2015,06,28,15,39,23.90
2015,06,28,15,40,23.90
2015,06,28,15,41,23.90
2015,06,28,15,42,23.90
2015,06,28,15,43,23.90
2015,06,28,15,44,23.90
2015,06,28,15,45,23.90
2015,06,28,15,46,24.00
2015,06,28,15,47,24.00
2015,06,28,15,48,24.00
2015,06,28,15,49,23.90
2015,06,28,15,50,23.90
2015,06,28,15,51,23.90
2015,06,28,15,52,23.90
2015,06,28,15,53,23.80
2015,06,28,15,54,23.80
2015,06,28,15,55,23.80
2015,06,28,15,56,23.80
2015,06,28,15,57,23.70
2015,06,28,15,58,23.60
2015,06,28,15,59,23.60
2015,06,28,16,00,23.60
2015,06,28,16,01,23.50
2015,06,28,16,02,23.50
2015,06,28,16,03,23.40
2015,06,28,16,04,23.40
2015,06,28,16,05,23.40
2015,06,28,16,06,23.30
2015,06,28,16,07,23.30
2015,06,28,16,08,23.30
2015,06,28,16,09,23.30
2015,06,28,16,10,23.20
2015,06,28,16,11,23.20
2015,06,28,16,12,23.20
2015,06,28,16,13,23.20
2015,06,28,16,14,23.20
2015,06,28,16,15,23.20
2015,06,28,16,16,23.20
2015,06,28,16,17,23.20
2015,06,28,16,18,23.20
2015,06,28,16,19,23.30
2015,06,28,16,20,23.30
2015,06,28,16,21,23.30
2015,06,28,16,22,23.30
2015,06,28,16,23,23.30
2015,06,28,16,24,23.30
2015,06,28,16,25,23.30
2015,06,28,16,26,23.30
2015,06,28,16,27,23.30
2015,06,28,16,28,23.40
2015,06,28,16,29,23.40
2015,06,28,16,30,23.40
2015,06,28,16,31,23.40
2015,06,28,16,32,23.40
2015,06,28,16,33,23.40
2015,06,28,16,34,23.40
2015,06,28,16,35,23.40
2015,06,28,16,36,23.30
2015,06,28,16,37,23.30
2015,06,28,16,38,23.30
2015,06,28,16,39,23.30
2015,06,28,16,40,23.30
2015,06,28,16,41,23.20
2015,06,28,16,42,23.20
2015,06,28,16,43,23.10
2015,06,28,16,44,23.10
2015,06,28,16,45,23.00
2015,06,28,16,46,23.00
2015,06,28,16,47,22.90
2015,06,28,16,48,22.90
2015,06,28,16,49,22.90
2015,06,28,16,50,22.90
2015,06,28,16,51,22.90
2015,06,28,16,52,22.90
2015,06,28,16,53,22.90
2015,06,28,16,54,22.90
2015,06,28,16,55,22.80
2015,06,28,16,56,22.80
2015,06,28,16,57,22.80
2015,06,28,16,58,22.80
2015,06,28,16,59,22.80
2015,06,28,17,00,22.80
2015,06,28,17,01,22.80
2015,06,28,17,02,22.80
2015,06,28,17,03,22.80
2015,06,28,17,04,22.80
2015,06,28,17,05,22.80
2015,06,28,17,06,22.80
2015,06,28,17,07,22.80
2015,06,28,17,08,22.80
2015,06,28,17,09,22.80
2015,06,28,17,10,22.80
2015,06,28,17,11,22.80
2015,06,28,17,12,22.80
2015,06,28,17,13,22.80
2015,06,28,17,14,22.80
2015,06,28,17,15,22.80
2015,06,28,17,16,22.80
2015,06,28,17,17,22.80
2015,06,28,17,18,22.80
2015,06,28,17,19,22.80